When you browse on this site, cookies collect data to enhance your experience and personalize the content and advertising you see.
Visit our Privacy Policy to learn more. By continuing to use the site, you agree to this use of cookies and data.
  • En España
  • Lista de países
  • Para 7 días
  • Temperatura del agua
  • El tiempo en el mapa
  • Informadores
  • user-avatar
    Iniciar sesión

    Tiempo cada hora Aden

    Hoy, 4 Junio, Jueves

    Tiempo Temperatura Precipitaciones Viento Presión Humedad
    00:00 +35°C° 0.1 mm 5 mps 754 mmHg 65%
    01:00 +35°C° 1.7 mm 5 mps 753 mmHg 63%
    02:00 +34°C° 1.7 mm 5 mps 753 mmHg 62%
    03:00 +34°C° 1.7 mm 5 mps 753 mmHg 60%
    04:00 +33°C° 2.2 mm 6 mps 753 mmHg 67%
    05:00 +30°C° 2.2 mm 6 mps 754 mmHg 73%
    06:00 +29°C° 2.2 mm 7 mps 754 mmHg 80%
    07:00 +28°C° 1.9 mm 8 mps 755 mmHg 82%
    08:00 +28°C° 1.9 mm 9 mps 755 mmHg 84%
    09:00 +28°C° 1.9 mm 9 mps 755 mmHg 86%
    10:00 +29°C° 0.1 mm 9 mps 755 mmHg 76%
    11:00 +32°C° 0.1 mm 9 mps 755 mmHg 67%
    12:00 +34°C° 0.1 mm 9 mps 755 mmHg 58%
    13:00 +33°C° 0 mm 8 mps 755 mmHg 59%
    14:00 +33°C° 0 mm 8 mps 754 mmHg 60%
    15:00 +33°C° 0 mm 7 mps 753 mmHg 62%
    16:00 +33°C° 0 mm 6 mps 754 mmHg 59%
    17:00 +34°C° 0 mm 5 mps 754 mmHg 56%
    18:00 +35°C° 0 mm 4 mps 754 mmHg 53%
    19:00 +35°C° 0 mm 3 mps 755 mmHg 53%
    20:00 +35°C° 0 mm 3 mps 755 mmHg 54%
    21:00 +35°C° 0 mm 2 mps 755 mmHg 54%
    22:00 +35°C° 0 mm 3 mps 755 mmHg 55%
    23:00 +34°C° 0 mm 3 mps 755 mmHg 55%

    Mañana, 5 Junio, Viernes

    Tiempo Temperatura Precipitaciones Viento Presión Humedad
    00:00 +34°C° 0 mm 4 mps 755 mmHg 56%
    01:00 +34°C° 0.5 mm 3 mps 755 mmHg 58%
    02:00 +34°C° 0.5 mm 3 mps 755 mmHg 61%
    03:00 +33°C° 0.5 mm 3 mps 754 mmHg 63%
    04:00 +33°C° 0.3 mm 3 mps 755 mmHg 63%
    05:00 +33°C° 0.3 mm 3 mps 755 mmHg 64%
    06:00 +33°C° 0.3 mm 3 mps 756 mmHg 64%
    07:00 +34°C° 0.1 mm 3 mps 756 mmHg 58%
    08:00 +35°C° 0.1 mm 4 mps 756 mmHg 52%
    09:00 +36°C° 0.1 mm 4 mps 756 mmHg 46%
    10:00 +36°C° 0 mm 4 mps 756 mmHg 45%
    11:00 +37°C° 0 mm 3 mps 756 mmHg 43%
    12:00 +37°C° 0 mm 3 mps 756 mmHg 42%
    13:00 +37°C° 0 mm 3 mps 755 mmHg 41%
    14:00 +38°C° 0 mm 2 mps 754 mmHg 40%
    15:00 +38°C° 0 mm 2 mps 754 mmHg 40%
    16:00 +38°C° 0 mm 2 mps 754 mmHg 40%
    17:00 +37°C° 0 mm 2 mps 754 mmHg 41%
    18:00 +36°C° 0 mm 1 mps 754 mmHg 42%
    19:00 +36°C° 0 mm 1 mps 754 mmHg 43%
    20:00 +35°C° 0 mm 1 mps 754 mmHg 45%
    21:00 +33°C° 0 mm 0 mps 755 mmHg 47%
    22:00 +33°C° 0 mm 0 mps 755 mmHg 49%
    23:00 +33°C° 0 mm 0 mps 755 mmHg 50%

    Pasado mañana, 6 Junio, Sábado

    Tiempo Temperatura Precipitaciones Viento Presión Humedad
    00:00 +33°C° 0 mm 0 mps 755 mmHg 51%
    01:00 +35°C° 0 mm 2 mps 754 mmHg 52%
    02:00 +35°C° 0 mm 3 mps 754 mmHg 53%
    03:00 +34°C° 0 mm 5 mps 754 mmHg 54%
    04:00 +34°C° 0 mm 4 mps 754 mmHg 59%
    05:00 +34°C° 0 mm 3 mps 755 mmHg 63%
    06:00 +33°C° 0 mm 3 mps 755 mmHg 67%
    07:00 +34°C° 0 mm 3 mps 756 mmHg 61%
    08:00 +36°C° 0 mm 2 mps 756 mmHg 54%
    09:00 +37°C° 0 mm 2 mps 756 mmHg 47%
    10:00 +38°C° 0 mm 3 mps 756 mmHg 42%
    11:00 +41°C° 0 mm 4 mps 755 mmHg 37%
    12:00 +42°C° 0 mm 4 mps 755 mmHg 32%
    13:00 +42°C° 0 mm 5 mps 754 mmHg 33%
    14:00 +42°C° 0 mm 5 mps 754 mmHg 34%
    15:00 +42°C° 0 mm 5 mps 753 mmHg 35%
    16:00 +41°C° 0 mm 5 mps 753 mmHg 36%
    17:00 +41°C° 0 mm 4 mps 753 mmHg 37%
    18:00 +40°C° 0 mm 4 mps 753 mmHg 38%
    19:00 +38°C° 0 mm 3 mps 753 mmHg 40%
    20:00 +38°C° 0 mm 3 mps 753 mmHg 42%
    21:00 +37°C° 0 mm 2 mps 753 mmHg 43%
    22:00 +37°C° 0 mm 2 mps 753 mmHg 45%
    23:00 +37°C° 0 mm 2 mps 753 mmHg 46%

    7 Junio, Domingo

    Tiempo Temperatura Precipitaciones Viento Presión Humedad
    00:00 +36°C° 0 mm 2 mps 753 mmHg 47%
    01:00 +36°C° 0 mm 4 mps 753 mmHg 51%
    02:00 +35°C° 0 mm 5 mps 752 mmHg 54%
    03:00 +35°C° 0 mm 6 mps 752 mmHg 57%
    04:00 +35°C° 0 mm 7 mps 752 mmHg 62%
    05:00 +34°C° 0 mm 7 mps 752 mmHg 67%
    06:00 +34°C° 0 mm 7 mps 753 mmHg 71%
    07:00 +35°C° 0 mm 8 mps 753 mmHg 65%
    08:00 +38°C° 0 mm 8 mps 754 mmHg 58%
    09:00 +39°C° 0 mm 9 mps 754 mmHg 52%
    10:00 +40°C° 0 mm 9 mps 754 mmHg 46%
    11:00 +43°C° 0 mm 10 mps 753 mmHg 41%
    12:00 +44°C° 0 mm 10 mps 753 mmHg 36%
    13:00 +44°C° 0 mm 10 mps 752 mmHg 34%
    14:00 +45°C° 0 mm 10 mps 752 mmHg 31%
    15:00 +45°C° 0 mm 10 mps 751 mmHg 29%
    16:00 +45°C° 0 mm 9 mps 751 mmHg 28%
    17:00 +45°C° 0 mm 9 mps 751 mmHg 28%
    18:00 +45°C° 0 mm 8 mps 751 mmHg 27%
    19:00 +44°C° 0 mm 7 mps 751 mmHg 30%
    20:00 +42°C° 0 mm 6 mps 751 mmHg 34%
    21:00 +41°C° 0 mm 5 mps 752 mmHg 37%
    22:00 +40°C° 0 mm 5 mps 752 mmHg 38%
    23:00 +40°C° 0 mm 5 mps 751 mmHg 39%

    8 Junio, Lunes

    Tiempo Temperatura Precipitaciones Viento Presión Humedad
    00:00 +38°C° 0 mm 4 mps 751 mmHg 40%
    01:00 +39°C° 0 mm 6 mps 751 mmHg 43%
    02:00 +38°C° 0 mm 7 mps 751 mmHg 45%
    03:00 +38°C° 0 mm 8 mps 750 mmHg 47%
    04:00 +37°C° 0 mm 8 mps 751 mmHg 51%
    05:00 +35°C° 0 mm 8 mps 751 mmHg 54%
    06:00 +35°C° 0 mm 8 mps 751 mmHg 58%
    07:00 +37°C° 0 mm 8 mps 752 mmHg 54%
    08:00 +38°C° 0 mm 8 mps 752 mmHg 50%
    09:00 +40°C° 0 mm 8 mps 752 mmHg 46%
    10:00 +41°C° 0 mm 8 mps 752 mmHg 40%
    11:00 +44°C° 0 mm 8 mps 751 mmHg 34%
    12:00 +46°C° 0 mm 8 mps 751 mmHg 28%
    13:00 +48°C° 0 mm 8 mps 751 mmHg 24%
    14:00 +49°C° 0 mm 8 mps 750 mmHg 20%
    15:00 +50°C° 0 mm 8 mps 750 mmHg 16%
    16:00 +50°C° 0 mm 8 mps 749 mmHg 19%
    17:00 +49°C° 0 mm 8 mps 749 mmHg 21%
    18:00 +48°C° 0 mm 8 mps 749 mmHg 23%
    19:00 +46°C° 0 mm 7 mps 750 mmHg 27%
    20:00 +45°C° 0 mm 6 mps 750 mmHg 31%
    21:00 +43°C° 0 mm 5 mps 750 mmHg 34%
    22:00 +42°C° 0 mm 5 mps 750 mmHg 40%
    23:00 +40°C° 0 mm 6 mps 750 mmHg 45%

    9 Junio, Martes

    Tiempo Temperatura Precipitaciones Viento Presión Humedad
    00:00 +39°C° 0 mm 7 mps 750 mmHg 50%
    01:00 +39°C° 0 mm 7 mps 750 mmHg 54%
    02:00 +38°C° 0 mm 8 mps 750 mmHg 58%
    03:00 +37°C° 0 mm 8 mps 750 mmHg 62%
    04:00 +37°C° 0 mm 8 mps 750 mmHg 62%
    05:00 +36°C° 0 mm 7 mps 751 mmHg 63%
    06:00 +35°C° 0 mm 7 mps 751 mmHg 64%
    07:00 +36°C° 0 mm 7 mps 752 mmHg 60%
    08:00 +38°C° 0 mm 6 mps 752 mmHg 55%
    09:00 +39°C° 0 mm 6 mps 752 mmHg 51%
    10:00 +40°C° 0 mm 5 mps 752 mmHg 48%
    11:00 +41°C° 0 mm 5 mps 752 mmHg 45%
    12:00 +42°C° 0 mm 5 mps 751 mmHg 41%
    13:00 +43°C° 0 mm 5 mps 751 mmHg 40%
    14:00 +43°C° 0 mm 5 mps 750 mmHg 38%
    15:00 +45°C° 0 mm 5 mps 750 mmHg 36%
    16:00 +43°C° 0 mm 5 mps 750 mmHg 38%
    17:00 +42°C° 0 mm 5 mps 750 mmHg 40%
    18:00 +41°C° 0 mm 4 mps 750 mmHg 43%
    19:00 +40°C° 0 mm 4 mps 750 mmHg 46%
    20:00 +40°C° 0 mm 4 mps 750 mmHg 49%
    21:00 +38°C° 0 mm 3 mps 750 mmHg 52%
    22:00 +38°C° 0 mm 4 mps 750 mmHg 53%
    23:00 +37°C° 0 mm 5 mps 750 mmHg 54%
    Mostrar más